Tracking 18852 objects as of 23-Nov-2017
HD Live streaming from Space Station
objects crossing your sky now

FENGYUN 1C DEB

Track FENGYUN 1C DEB now!
10-day predictions


NORAD ID: 30613
Int'l Code: 1999-025AMU
Perigee: 595.8 km
Apogee: 912.5 km
Inclination: 98.5 °
Period: 99.8 minutes
Semi major axis: 7125 km
RCS: 0.0146 m2 (small)
Launch date: May 10, 1999
Source: People's Republic of China (PRC)
Launch site: Taiyaun Space Center, China (TSC)

Note: This is SATELLITE DEBRIS
aabbcc
Your satellite tracking list
Your tracking list is empty




NASA's NSSDC Master Catalog

Two Line Element Set (TLE):
1 30613U 99025AMU 17327.16068133  .00000978  00000-0  22686-3 0  9997
2 30613  98.5468  25.4601 0222202 221.9683 136.4295 14.43481742566582
Source of the keplerian elements: AFSPC